Location: Stadlberg
(47.9690°N, 13.2636°E)
Time: 08:24:48
(UTC+01:00)

ISS - Visible Passes

Search period start: 02 December 2021 00:00
Search period end: 12 December 2021 00:00
Orbit: 417 x 423 km, 51.6° (Epoch: 02 December)

Date Brightness Start Highest point End Pass type
(mag) Time Alt. Az. Time Alt. Az. Time Alt. Az.
02 Dec -3.7 17:58:11 10° WNW 18:01:35 63° NNE 18:02:15 49° ENE visible
02 Dec -0.1 19:35:12 10° W 19:35:15 10° W 19:35:15 10° W visible
03 Dec -3.5 17:10:59 10° WNW 17:14:20 52° NNE 17:17:10 13° E visible
03 Dec -2.1 18:47:52 10° WNW 18:50:10 35° W 18:50:10 35° W visible
04 Dec -3.6 18:00:37 10° WNW 18:04:01 72° SSW 18:05:13 37° SE visible
05 Dec -3.8 17:13:24 10° WNW 17:16:49 83° NNE 17:20:13 10° ESE visible
05 Dec -1.5 18:50:40 10° W 18:53:21 22° SW 18:53:27 22° SW visible
06 Dec -2.0 18:03:11 10° W 18:06:15 32° SW 18:08:55 13° SSE visible
07 Dec -2.7 17:15:49 10° WNW 17:19:07 48° SSW 17:22:24 10° SE visible
08 Dec -0.6 18:06:24 10° WSW 18:08:16 14° SW 18:10:07 10° S visible
09 Dec -1.0 17:18:34 10° W 17:21:13 21° SW 17:23:51 10° S visible
